Weather Roundup
Issued by NWS Chicago, IL

Home | Current Version | Previous Version | Graphics & Text | Print | Product List | Glossary On
Versions: 1 2 3 4 5 6 7 8 9 10 11 12 13 14 15 16 17 18 19 20 21 22 23 24 25 26 27 28 29 30 31 32 33 34 35 36 37 38 39 40 41 42 43 44 45 46 47 48 49 50
000
NZUS59 KLOT 201806
HRRLOT

CHICAGO AREA WEATHER ROUNDUP
NATIONAL WEATHER SERVICE CHICAGO/ROMEOVILLE IL
100 PM CDT SUN APR 20 2014

NOTE: "FAIR" INDICATES FEW OR NO CLOUDS BELOW 12,000 FEET WITH NO
SIGNIFICANT WEATHER AND/OR OBSTRUCTIONS TO VISIBILITY.

* THESE STATIONS ARE NOT UNDER NWS QUALITY CONTROL. THEY ALSO MAY NOT
  REPORT WEATHER SUCH AS PRECIPITATION OR FOG.

ILZ005-006-012>014-019>023-201900-
NORTHEAST ILLINOIS

CITY           SKY/WX    TMP DP  RH WIND       PRES   REMARKS
OHARE          PTSUNNY   74  38  27 SW17      30.15F
6HR MIN TEMP:  45; 6HR MAX TEMP:  74;

MIDWAY         PTSUNNY   73  39  29 S12       30.16F
6HR MIN TEMP:  47; 6HR MAX TEMP:  73;

AURORA         SUNNY     75  41  29 S13       30.15F
6HR MIN TEMP:  43; 6HR MAX TEMP:  75;

LANSING*       SUNNY     73  37  27 S10G16    30.17F
JOLIET*        SUNNY     74  38  27 S12       30.16F
WAUKEGAN       MOSUNNY   65  39  38 SE12      30.14F
6HR MIN TEMP:  45; 6HR MAX TEMP:  68;

DUPAGE AIRPORT SUNNY     74  40  29 SW13G21   30.15F
6HR MIN TEMP:  45; 6HR MAX TEMP:  74;

WHEELING       MOSUNNY   73  38  27 SW9       30.17F
6HR MIN TEMP:  47; 6HR MAX TEMP:  74;

KANKAKEE*      MOSUNNY   74  42  32 S12       30.17F
MORRIS*        SUNNY     77  29  17 SW9       30.14F
NORTHERLY IS     N/A     72  35  25 S8          N/A
$$

WIZ051-052-058>065-066-070>072-201900-
SOUTHEAST WISCONSIN

CITY           SKY/WX    TMP DP  RH WIND       PRES   REMARKS
MILWAUKEE      MOSUNNY   73  39  29 S14G21    30.13F
6HR MIN TEMP:  48; 6HR MAX TEMP:  73;

KENOSHA*       SUNNY     73  41  31 SW10G22   30.14F
RACINE*        SUNNY     62  37  39 S13       30.16F
BURLINGTON     SUNNY     73  40  31 SW14      30.13F
WAUKESHA       MOSUNNY   72  39  30 SW12      30.13F
$$

INZ001>003-010>013-019-020-201900-
NORTHWEST INDIANA

CITY           SKY/WX    TMP DP  RH WIND       PRES   REMARKS
GARY*          PTSUNNY   72  34  25 S14       30.18F
MICHIGAN CITY* NOT AVBL
RENSSELAER*    NOT AVBL
VALPARAISO     MOSUNNY   70  35  27 S12       30.20F
$$

LMZ740>746-201900-
SOUTHERN LAKE MICHIGAN

STATION/POSITION TIME  SKY/WX   TEMP WIND        PRES    VSBY
                                AIR  DIR/SP/G
                 (UTC)          (F)  (DEG/KT/KT) (MB)    (MI)
HARRISON CRIB    1800            60  150/ 15/ 16   N/A
BURNHAM HARBOR   1800            72  160/  5/ 15   N/A
CALUMET HARBOR   1800            70  170/  9/ 15 1022.1F
BURNS HARBOR     NOT AVBL
MICHIGAN CITY    1800            67  160/  7/ 11   N/A
$$

ABBREVIATIONS USED IN REMARKS
   TC - TEMPERATURE IN CELSIUS
  WCI - WIND CHILL INDEX
   HX - HEAT INDEX
  VSB - VISIBILITY
$$



USA.gov is the U.S. government's official web portal to all federal, state and local government web resources and services.